GW6932 Weather Reports


time (UTC)temp
C
wind
direction
speed
KPH
gust
KPH
rain 1hr
cm
rain 24hr
cm
rain mn
cm
humidity
%
barometer
mb
20260505041757 22 186 4.8 9.7 0.00 0.00 0.00 74 1011.1
20260505041255 22 118 3.2 11.3 0.00 0.00 0.00 73 1011.0
20260505040752 22 222 4.8 6.4 0.00 0.00 0.00 73 1011.0
20260505040249 22 136 3.2 8.0 0.00 0.00 0.00 73 1011.4
20260505035746 22 120 0.0 6.4 0.00 0.00 0.00 72 1011.2
20260505035242 22 167 1.6 6.4 0.00 0.00 0.00 73 1011.4
20260505034739 22 148 3.2 9.7 0.00 0.00 0.00 73 1011.2
20260505034236 22 148 3.2 9.7 0.00 0.00 0.00 73 1011.2
20260505033732 22 96 0.0 8.0 0.00 0.00 0.00 73 1011.3
20260505033230 22 200 6.4 9.7 0.00 0.00 0.00 73 1011.7
20260505032728 22 201 8.0 9.7 0.00 0.00 0.00 73 1011.6
20260505032224 22 184 4.8 11.3 0.00 0.00 0.00 73 1011.6
20260505031721 22 173 3.2 9.7 0.00 0.00 0.00 73 1011.5
20260505031218 22 46 3.2 6.4 0.00 0.00 0.00 73 1011.5
20260505030715 22 114 3.2 6.4 0.00 0.00 0.00 72 1011.5
20260505030211 22 204 1.6 9.7 0.00 0.00 0.00 72 1011.5
20260505025707 22 3 0.0 6.4 0.00 0.00 0.00 72 1011.3
20260505025205 22 111 3.2 4.8 0.00 0.00 0.00 72 1011.3
20260505024703 22 15 4.8 14.5 0.00 0.00 0.00 71 1011.3
20260505024159 22 93 3.2 9.7 0.00 0.00 0.00 71 1011.1
20260505023657 22 134 4.8 8.0 0.00 0.00 0.00 71 1011.3
20260505023154 22 162 3.2 6.4 0.00 0.00 0.00 71 1011.2
20260505022652 22 119 6.4 6.4 0.00 0.00 0.00 71 1011.3
20260505022149 22 194 1.6 6.4 0.00 0.00 0.00 71 1011.4
20260505021645 22 182 3.2 8.0 0.00 0.00 0.00 71 1011.3
20260505021142 22 136 3.2 17.7 0.00 0.00 0.00 70 1011.3
20260505020637 22 119 1.6 6.4 0.00 0.00 0.00 70 1011.3
20260505020134 23 127 4.8 6.4 0.00 0.00 0.00 70 1010.9
20260505015631 23 121 3.2 6.4 0.00 0.00 0.00 70 1010.9
20260505015127 23 141 0.0 9.7 0.00 0.00 0.00 70 1011.1
20260505014624 23 128 12.9 16.1 0.00 0.00 0.00 70 1010.9
20260505014121 22 125 6.4 6.4 0.00 0.00 0.00 70 1010.9
20260505013619 22 109 3.2 6.4 0.00 0.00 0.00 70 1011.1
20260505013116 22 135 0.0 4.8 0.00 0.00 0.00 70 1010.8
20260505012614 22 68 0.0 4.8 0.00 0.00 0.00 70 1010.9
20260505012111 22 121 4.8 8.0 0.00 0.00 0.00 70 1010.9
20260505011606 23 119 4.8 9.7 0.00 0.00 0.00 69 1010.9
20260505011104 23 131 1.6 8.0 0.00 0.00 0.00 69 1010.9
20260505010604 23 144 1.6 6.4 0.00 0.00 0.00 68 1010.9
20260505005557 23 120 3.2 8.0 0.00 0.00 0.00 68 1010.8
20260505005055 23 124 1.6 14.5 0.00 0.00 0.00 67 1010.8
20260505004552 23 165 3.2 8.0 0.00 0.00 0.00 66 1010.6
20260505004049 23 125 6.4 8.0 0.00 0.00 0.00 66 1010.6
20260505003546 23 162 1.6 8.0 0.00 0.00 0.00 65 1010.5
20260505003043 24 111 4.8 14.5 0.00 0.00 0.00 65 1010.7
20260505002538 24 99 3.2 6.4 0.00 0.00 0.00 66 1010.7
20260505002037 24 95 1.6 11.3 0.00 0.00 0.00 65 1010.8
20260505001534 24 161 4.8 9.7 0.00 0.00 0.00 65 1010.6
20260505001031 24 122 3.2 8.0 0.00 0.00 0.00 64 1010.7
20260505000529 24 72 0.0 9.7 0.00 0.00 0.00 65 1010.7
20260505000026 24 133 6.4 11.3 0.00 0.00 0.00 64 1010.9
20260504235523 24 137 4.8 6.4 0.00 0.00 0.00 64 1010.8
20260504235019 24 107 4.8 8.0 0.00 0.00 0.00 64 1011.0
20260504234516 25 93 4.8 9.7 0.00 0.00 0.00 63 1010.7
20260504234013 25 131 9.7 12.9 0.00 0.00 0.00 62 1010.7
20260504233508 25 76 3.2 9.7 0.00 0.00 0.00 62 1010.9
20260504233006 25 151 9.7 9.7 0.00 0.00 0.00 61 1010.9
20260504232503 25 140 3.2 9.7 0.00 0.00 0.00 61 1011.1
20260504232000 25 89 9.7 14.5 0.00 0.00 0.00 60 1010.8
20260504231456 25 250 1.6 12.9 0.00 0.00 0.00 61 1011.0
20260504230953 25 155 9.7 12.9 0.00 0.00 0.00 59 1011.0
20260504230449 26 152 4.8 14.5 0.00 0.00 0.00 58 1011.4
20260504225948 26 102 4.8 8.0 0.00 0.00 0.00 58 1011.2
20260504225444 26 96 3.2 9.7 0.00 0.00 0.00 57 1011.1
20260504224942 26 129 3.2 17.7 0.00 0.00 0.00 55 1011.3
20260504224438 26 179 1.6 9.7 0.00 0.00 0.00 55 1011.1
20260504223936 26 136 4.8 9.7 0.00 0.00 0.00 54 1011.3
20260504223431 26 93 4.8 6.4 0.00 0.00 0.00 54 1011.4
20260504222927 26 129 1.6 8.0 0.00 0.00 0.00 53 1011.4
20260504222425 26 171 3.2 8.0 0.00 0.00 0.00 53 1011.6
20260504221923 26 129 4.8 8.0 0.00 0.00 0.00 54 1011.5
20260504221419 27 140 3.2 6.4 0.00 0.00 0.00 52 1011.5
20260504220916 27 21 1.6 8.0 0.00 0.00 0.00 52 1011.5
20260504220413 27 145 3.2 8.0 0.00 0.00 0.00 52 1011.4
20260504215910 27 104 4.8 9.7 0.00 0.00 0.00 51 1011.6
20260504215407 27 103 4.8 8.0 0.00 0.00 0.00 50 1011.6
20260504214903 27 223 0.0 8.0 0.00 0.00 0.00 48 1011.7
20260504214400 28 199 1.6 9.7 0.00 0.00 0.00 49 1011.9
20260504213856 27 175 3.2 4.8 0.00 0.00 0.00 48 1011.8
20260504213352 28 165 3.2 14.5 0.00 0.00 0.00 48 1011.7
20260504212850 28 174 0.0 11.3 0.00 0.00 0.00 48 1011.6
20260504212346 28 146 4.8 8.0 0.00 0.00 0.00 48 1011.9
20260504211844 28 294 3.2 6.4 0.00 0.00 0.00 48 1012.1
20260504211339 28 103 0.0 8.0 0.00 0.00 0.00 49 1012.1
20260504210837 28 187 1.6 8.0 0.00 0.00 0.00 49 1012.0
20260504210334 28 106 3.2 8.0 0.00 0.00 0.00 48 1012.2
20260504205831 28 107 1.6 8.0 0.00 0.00 0.00 50 1012.2
20260504205329 28 105 4.8 11.3 0.00 0.00 0.00 47 1012.4
20260504204827 28 202 1.6 6.4 0.00 0.00 0.00 49 1012.5
20260504204325 28 223 4.8 9.7 0.00 0.00 0.00 47 1012.7
20260504203824 27 77 4.8 6.4 0.00 0.00 0.00 47 1012.5
20260504203321 28 142 3.2 6.4 0.00 0.00 0.00 46 1012.6
20260504202816 28 208 1.6 6.4 0.00 0.00 0.00 46 1013.0
20260504202314 28 315 1.6 4.8 0.00 0.00 0.00 48 1012.9
20260504201810 27 167 6.4 6.4 0.00 0.00 0.00 49 1013.0
20260504201308 27 98 1.6 8.0 0.00 0.00 0.00 48 1013.1
20260504200805 28 295 1.6 9.7 0.00 0.00 0.00 47 1013.3
20260504200301 28 282 3.2 12.9 0.00 0.00 0.00 46 1013.2
20260504195757 27 128 3.2 9.7 0.00 0.00 0.00 49 1013.4
20260504195253 28 206 4.8 8.0 0.00 0.00 0.00 45 1013.6
20260504194750 28 58 0.0 8.0 0.00 0.00 0.00 47 1013.5
20260504194247 27 184 1.6 6.4 0.00 0.00 0.00 50 1013.7
20260504193743 27 106 1.6 11.3 0.00 0.00 0.00 49 1013.7
20260504193241 27 171 3.2 6.4 0.00 0.00 0.00 47 1013.6
20260504192739 28 356 1.6 3.2 0.00 0.00 0.00 47 1013.9
20260504192237 27 83 1.6 4.8 0.00 0.00 0.00 49 1013.7
20260504191735 27 50 1.6 16.1 0.00 0.00 0.00 49 1013.7
20260504191232 27 108 0.0 9.7 0.00 0.00 0.00 48 1014.0
20260504190727 27 284 4.8 6.4 0.00 0.00 0.00 49 1014.1
20260504190224 27 190 0.0 4.8 0.00 0.00 0.00 48 1014.0
20260504185720 27 294 0.0 9.7 0.00 0.00 0.00 47 1014.3
20260504185217 28 210 8.0 8.0 0.00 0.00 0.00 46 1014.3
20260504184713 28 205 6.4 6.4 0.00 0.00 0.00 44 1014.2
20260504184209 27 152 1.6 8.0 0.00 0.00 0.00 50 1014.6
20260504183705 27 122 6.4 9.7 0.00 0.00 0.00 48 1014.4
20260504183202 27 113 9.7 9.7 0.00 0.00 0.00 49 1014.4
20260504182700 27 95 4.8 8.0 0.00 0.00 0.00 50 1014.4
20260504182157 26 107 1.6 6.4 0.00 0.00 0.00 50 1014.7
20260504181655 26 108 6.4 8.0 0.00 0.00 0.00 50 1014.6
20260504181152 26 98 1.6 8.0 0.00 0.00 0.00 49 1014.7
20260504180651 27 230 3.2 8.0 0.00 0.00 0.00 47 1014.8
20260504180149 26 126 8.0 8.0 0.00 0.00 0.00 48 1015.0
20260504175646 27 208 4.8 9.7 0.00 0.00 0.00 46 1015.0
20260504175143 26 125 3.2 6.4 0.00 0.00 0.00 50 1014.9
20260504174641 26 191 3.2 8.0 0.00 0.00 0.00 49 1014.9
20260504174137 26 228 4.8 9.7 0.00 0.00 0.00 50 1014.9
20260504173635 26 93 0.0 9.7 0.00 0.00 0.00 47 1015.1
20260504173132 26 305 4.8 6.4 0.00 0.00 0.00 48 1015.3
20260504172629 26 232 0.0 8.0 0.00 0.00 0.00 51 1015.1
20260504172125 26 254 11.3 19.3 0.00 0.00 0.00 49 1015.4
20260504171621 25 99 4.8 9.7 0.00 0.00 0.00 51 1015.5
20260504171119 25 213 0.0 6.4 0.00 0.00 0.00 52 1015.5
20260504170615 26 106 3.2 9.7 0.00 0.00 0.00 50 1015.7
20260504170113 26 292 4.8 9.7 0.00 0.00 0.00 50 1015.8
20260504150958 23 207 3.2 16.1 0.00 0.00 0.00 55 1016.8
20260504150455 23 107 1.6 8.0 0.00 0.00 0.00 56 1016.6
20260504140922 22 109 3.2 8.0 0.00 0.00 0.00 57 1016.5
20260504140418 22 112 1.6 8.0 0.00 0.00 0.00 59 1016.3
20260504130343 22 106 3.2 3.2 0.00 0.00 0.00 59 1016.5
20260504120306 12 98 3.2 3.2 0.00 0.00 0.00 95 1016.3
20260504110230 12 89 1.6 3.2 0.00 0.00 0.00 94 1016.2
20260504100154 12 83 1.6 3.2 0.00 0.00 0.00 92 1016.3
20260504090116 12 92 3.2 3.2 0.00 0.00 0.00 88 1016.7
20260504081547 13 78 0.0 1.6 0.00 0.00 0.00 85 1016.8
20260504081042 13 96 1.6 3.2 0.00 0.00 0.00 86 1016.9
20260504080539 13 101 3.2 3.2 0.00 0.00 0.00 85 1017.0
20260504050352 16 100 1.6 3.2 0.00 0.00 0.00 69 1018.8